Current Version              Previous Version:    01  02  03  04  05  06  07  08  09  10  11  12  13  14  15  16  17  18  19  20  21  22  23  24  25  26  27  28  29  30  
   31  32  33  34  35  36  37  38  39  40  41  42  43  44  45  46  47  48  49  50  51  52  53  54  55  56  57  58  59  60  

[Printable]
455
ASUS44 KFWD 301303
RWRTX
NORTH TEXAS HOURLY WEATHER ROUNDUP
NATIONAL WEATHER SERVICE FORT WORTH TX
800 AM CDT THU OCT 30 2014

NOTE: "FAIR" INDICATES FEW OR NO CLOUDS BELOW 12,000 FEET WITH NO
SIGNIFICANT WEATHER AND/OR OBSTRUCTIONS TO VISIBILITY.

TXZ118-119-301400-
DALLAS/FORT WORTH METROPLEX

CITY           SKY/WX    TMP DP  RH WIND       PRES   REMARKS
DFW AIRPORT    PTCLDY    54  46  74 SE3       30.14R
DALLAS LOVE    CLEAR     57  47  69 SE9       30.14R
FTW MEACHAM    CLEAR     57  46  66 SE3       30.14R
DAL-EXECUTIVE  CLEAR     53  46  77 S3        30.14R
FTW-ALLIANCE   PTCLDY    52  46  80 CALM      30.14R
FTW-NAS-JRB    PTCLDY    59  45  59 SE3       30.18R
FTW-SPINKS     CLEAR     52  46  82 CALM      30.15R
ARLINGTON      CLEAR     48  45  89 CALM      30.14R
GRAND PRAIRIE  CLEAR     55  48  76 MISG      30.16R
MESQUITE       CLEAR     48  45  87 CALM      30.16R
LANCASTER      CLEAR     47  39  74 CALM      30.16R
$$

TXZ091>094-102>105-117-120-121-131>134-301400-
NORTH CENTRAL TEXAS

CITY           SKY/WX    TMP DP  RH WIND       PRES   REMARKS
SHRMAN/DENISON CLEAR     52  47  82 S5        30.16R
GAINESVILLE    CLEAR     49  44  83 S3        30.16R
BRIDGEPORT     CLEAR     45  45  99 CALM      30.15S
DECATUR        CLEAR     53  45  74 SE3       30.14R
DENTON         CLEAR     46  43  89 CALM      30.15R
MCKINNEY       CLEAR     46  43  89 CALM      30.15S
GREENVILLE     CLEAR     45  43  93 CALM      30.16R
ROCKWALL       CLEAR     54  46  74 S7        30.14S
TERRELL        CLEAR     48  44  86 CALM      30.15R
WAXAHACHIE     CLEAR     49  47  95 CALM      30.16R
CLEBURNE       CLEAR     54  48  82 SE5       30.15S
GRANBURY       PTCLDY    53  47  81 CALM      30.15R
$$

TXZ083>090-098>101-113>116-127>130-139>142-154-155-301400-
WESTERN NORTH TEXAS

CITY           SKY/WX    TMP DP  RH WIND       PRES   REMARKS
WICHITA FALLS  CLEAR     51  43  74 S6        30.11R
WF-KICKAPOO    CLEAR     51  43  73 CALM      30.13R
VERNON         CLEAR     50  41  71 NE5       30.13R
ABILENE        CLEAR     57  51  80 S8        30.12R
ABILENE-DYESS  CLEAR     57  52  82 SE10      30.11R
MINERAL WELLS  MOCLDY    52  45  77 SE3       30.12S
STEPHENVILLE   CLEAR     54  47  78 CALM      30.16R
COMANCHE       MOCLDY    56  54  91 S5        30.14S
COLEMAN        PTCLDY    55  51  86 CALM      30.14R
BRADY          CLEAR     55  55 100 SE5       30.13R FOG
$$

TXZ143>147-156>162-174-175-301400-
CENTRAL TEXAS

CITY           SKY/WX    TMP DP  RH WIND       PRES   REMARKS
WACO           MOCLDY    52  49  89 CALM      30.14R
WACO-TSTC      PTCLDY    52  50  93 CALM      30.15R
WACO-MCGREGOR  PTCLDY    54  45  71 CALM      30.15S
HILLSBORO      CLEAR     55  46  71 CALM      30.15R
CORSICANA      CLEAR     52  47  83 S3        30.16R
MEXIA          PTCLDY    52  47  83 E3        30.14R
HEARNE         MOCLDY    53  51  92 CALM      30.16R
CAMERON        MOCLDY    55  52  91 CALM      30.14S
TEMPLE         MOCLDY    55  48  76 CALM      30.14R
KILLEEN        MOCLDY    60  55  85 SE5       30.14R
KILLEEN-SKYLRK MOCLDY    61  50  67 E3        30.12R
FORT HOOD      CLOUDY    61  54  77 E5        30.14R
GATESVILLE     MOCLDY    57  52  82 CALM      30.16R
HAMILTON       CLOUDY    59  52  76 S7        30.15R
LAMPASAS       MOCLDY    58  55  91 CALM      30.13R
$$

TXZ095>097-106>112-122>126-135>138-148>153-164>167-301400-
EAST TEXAS

CITY           SKY/WX    TMP DP  RH WIND       PRES   REMARKS
PARIS          CLEAR     46  37  71 SE5       30.16R
SULPHUR SPRNGS CLEAR     51  45  78 S3        30.17S
MOUNT PLEASANT CLEAR     42  42 100 CALM      30.18S
MINEOLA        CLEAR     43  43 100 CALM      30.17R
TYLER          CLEAR     50  45  83 CALM      30.15R
LONGVIEW       CLEAR     46  43  89 CALM      30.16R
MARSHALL       CLEAR     46  44  93 CALM      30.18R
ATHENS         CLEAR     45  43  93 CALM      30.14S
PALESTINE      CLEAR     53  47  79 SE5       30.16R
HENDERSON      CLEAR     43  43  99 CALM      30.17R
NACOGDOCHES    CLEAR     41  37  87 CALM      30.16R
LUFKIN         CLEAR     51  46  83 CALM      30.15R
$$

SUPPLEMENTAL OBSERVATIONS (CENTRAL)

CITY           SKY/WX    TMP DP  RH WIND       PRES   REMARKS
$$

SUPPLEMENTAL OBSERVATIONS (WEST)

CITY           SKY/WX    TMP DP  RH WIND       PRES   REMARKS
$$

SUPPLEMENTAL OBSERVATIONS (EAST)

CITY           SKY/WX    TMP DP  RH WIND       PRES   REMARKS
$$

SUPPLEMENTAL OBSERVATIONS ARE A COLLECTION OF AUTOMATED INSTRUMENTS
THAT ARE MAINTAINED BY A VARIETY OF FEDERAL AND STATE AGENCIES.
CERTAIN ELEMENTS...SUCH AS HUMIDITY VALUES AND SUSTAINED WIND
SPEEDS...MAY BE APPROXIMATED.